Regional Weather Roundup
Issued by NWS

Home | Current Version | Previous Version | Graphics & Text | Print | Product List | Glossary Off
Versions: 1 2 3 4 5 6 7 8 9 10 11 12 13 14 15 16 17 18 19 20 21 22 23 24 25 26 27 28 29 30 31 32 33 34 35 36 37 38 39 40 41 42 43 44 45 46 47 48 49 50

000
ASUS43 KMKX 020500
RWRWI

WISCONSIN REGIONAL WEATHER ROUNDUP
NATIONAL WEATHER SERVICE MILWAUKEE/SULLIVAN WI
1200 AM CDT WED SEP 02 2015

NOTE: "FAIR" INDICATES FEW OR NO CLOUDS BELOW 12,000 FEET WITH NO
SIGNIFICANT WEATHER AND/OR OBSTRUCTIONS TO VISIBILITY.

WIZ001-002-006>008-014>016-023>028-020600-
NORTHWEST WISCONSIN

CITY           SKY/WX    TMP DP  RH WIND       PRES   REMARKS
SUPERIOR ARPT  PTCLDY    68  67  99 NE5       29.92S FOG
ASHLAND        FOG       66  66 100 CALM      29.94F VSB 1/4
HAYWARD        MOCLDY    68  66  93 CALM      29.95F FOG
SIREN          CLOUDY    74  72  93 CALM      29.94R
CUMBERLAND     CLOUDY    72  70  94 CALM      29.96R FOG
RICE LAKE      CLOUDY    72  70  94 CALM      29.96S FOG
CHETEK         CLOUDY   N/A N/A N/A CALM      29.95S HAZE
LADYSMITH      MOCLDY    73  71  92 E6        29.98S
EAU CLAIRE     MOCLDY    73  71  93 CALM      29.94S
MENOMONIE      CLOUDY    73  72  95 CALM      29.95R FOG
NEW RICHMOND   MOCLDY    74  73  96 S3        29.94S
OSCEOLA        CLOUDY    74  74 100 CALM      29.96R
$$

WIZ003>005-009-010-017-018-020600-
NORTH CENTRAL WISCONSIN

CITY           SKY/WX    TMP DP  RH WIND       PRES   REMARKS
MANITOWISH WTR CLOUDY    65  65 100 CALM      29.99F FOG
ARBOR VITAE    PTCLDY    69  68  96 CALM      30.00S
WOODRUFF       PTCLDY    69  68  96 CALM      30.00S
RHINELANDER    MOCLDY    68  66  93 CALM      30.01S FOG
EAGLE RIVER      N/A     66  66 100 CALM      30.00S FOG
LAND O LAKES   PTCLDY    63  63  99 CALM      30.02R FOG
PHILLIPS       CLOUDY    68  68 100 CALM      29.98S FOG
TOMAHAWK       FOG       68  67  97 CALM      30.01R VSB 3/4
MEDFORD        MOCLDY    69  69 100 S3        29.99S FOG
MERRILL        FOG       69  69 100 CALM      29.99S VSB 1/4
$$

WIZ029-030-035-036-043>047-020600-
CENTRAL WISCONSIN

CITY           SKY/WX    TMP DP  RH WIND       PRES   REMARKS
WAUSAU         FAIR      72  70  93 E5        29.97S FOG
MOSINEE        FAIR      70  70 100 S3        30.00S FOG
MARSHFIELD     MOCLDY    73  69  87 S3        29.99R FOG
STEVENS POINT  PTCLDY    72  70  93 CALM      29.99S
WAUPACA        PTCLDY    73  73  98 CALM      29.98S
WAUTOMA        NOT AVBL
WISC RAPIDS    PTCLDY    74  70  87 CALM      30.00R
CAMP DOUGLAS   FOG       69  69 100 E2        29.97S VSB 1
$$

WIZ011>013-019>022-031-037>040-048>050-020600-
NORTHEAST WISCONSIN

CITY           SKY/WX    TMP DP  RH WIND       PRES   REMARKS
ANTIGO         MOCLDY    69  68  98 CALM      30.01S FOG
SHAWANO        PTCLDY    76  71  84 CALM      29.97S
OCONTO         MOCLDY    70  70 100 CALM      29.95S
STURGEON BAY   MOCLDY    72  68  88 SW6       29.99S
GREEN BAY      MOCLDY    74  71  91 S3        29.97S
MANITOWOC      NOT AVBL
APPLETON       PTCLDY    75  70  83 SW7       29.98R
CLINTONVILLE   PTCLDY    70  68  94 CALM      29.98S FOG
OSHKOSH        PTCLDY    73  69  87 S3        29.98S
$$

WIZ032>034-041-042-053>061-020600-
SOUTHWEST WISCONSIN

CITY           SKY/WX    TMP DP  RH WIND       PRES   REMARKS
LA CROSSE      PTCLDY    77  73  87 SE6       29.95S
SPARTA         MOCLDY    73  70  91 CALM      29.98R
VIROQUA          N/A     74  74 100 SW6       30.00S
BOSCOBEL       PTCLDY    73  71  93 CALM      29.99R FOG
PRAIRIE DU CHI CLEAR     77  71  81 CALM      29.99S
PLATTEVILLE    PTCLDY    73  71  94 S7        30.02S
$$

WIZ056-057-062-063-064-067-068-020600-
SOUTH CENTRAL WISCONSIN

CITY           SKY/WX    TMP DP  RH WIND       PRES   REMARKS
REEDSBURG      PTCLDY    76  73  91 SW3       29.98S
BARABOO/DELLS  PTCLDY    76  71  85 SW6       29.99S
LONE ROCK      NOT AVBL
MINERAL POINT  PTCLDY    77  72  83 SW6       30.03S
MADISON        PTCLDY    77  71  82 SW5       29.99S
MIDDLETON      PTCLDY    78  72  82 SW8       30.01S HX  80
WATERTOWN      PTCLDY    73  73 100 CALM      30.01S
MONROE         PTCLDY    73  70  88 SW10      30.03R
JANESVILLE     PTCLDY    73  72  94 SW5       30.01S
$$

WIZ051-052-058>065-066-070>072-020600-
SOUTHEAST WISCONSIN

CITY           SKY/WX    TMP DP  RH WIND       PRES   REMARKS
MILWAUKEE      MOCLDY    78  70  76 SW10      30.01R HX  80
WAUKESHA       PTCLDY    72  70  94 CALM      30.03S
MILWAUKEE/TIMM PTCLDY    77  68  73 SW5       30.01S
RACINE         MOCLDY    77  71  82 SW6       30.03R
BURLINGTON     CLEAR     69  67  96 CALM      30.02S
KENOSHA        PTCLDY    77  72  84 SW7       30.02S
FOND DU LAC    PTCLDY    74  71  91 SW5       29.99S
SHEBOYGAN      MOCLDY    71  68  90 SW5       29.99S FOG
WEST BEND      PTCLDY    72  68  88 CALM      30.01R
JUNEAU         PTCLDY    74  71  89 S6        30.02R
$$

LSZ147-162-020600-
LAKE SUPERIOR

STATION/POSITION TIME  TEMP    WIND        PRES    WAVE
                       AIR SEA DIR/SP/G            HT/PER
                 (UTC) (F)     (DEG/KT/KT) (MB)    (FT/S)
W MID LAKE BUOY  0350   59 56  120/  4/  6 1013.9R   0
DEVILS ISLAND    0400   71     170/  2/  2 1013.5S
PORT WING        0400   68     100/  2/  2 1013.5S
SAXON HARBOR     0400   71        CALM     1013.2
$$

LMZ867-665-643>646-020600-
LAKE MICHIGAN

STATION/POSITION TIME  TEMP    WIND        PRES    WAVE
                       AIR SEA DIR/SP/G            HT/PER
                 (UTC) (F)     (DEG/KT/KT) (MB)    (FT/S)
CHAMBERS ISLAND  0400   75     180/  3/  7 1014.2R
S GREEN BAY BUOY 0230   72 67  180/  6/  6 1015.6R
N MID LAKE BUOY  0350   67 65  200/ 12/ 14 1014.2S   2/ 4
NORTHPORT PIER   0400   71     170/  4/  7 1014.2S
SISTER BAY       0419   72     120/  5/  8   N/A
ALGOMA LAKESHORE 0414             CALM       N/A
KEWAUNEE LAKESHO 0400   54      CALM  /  2 1013.9R
SHEBOYGAN LAKESH 0400   66     190/  7/  7 1015.5R
PORT WASHINGTON  0400   61     160/  1/  3 1016.3R
ATWATER BUOY     0400   59 49  170/  8/  8 1017.2R
MILWAUKEE LAKESH 0410   75     210/  3/  4   N/A
S MID LAKE BUOY  0350   74 70  190/ 12/ 14 1015.9R   1/ 3
KENOSHA   LAKESH 0400   77     200/  7/  8 1015.9S
$$

TC  - TEMPERATURE IN CELSIUS
VSB - VISIBILITY IN STATUTE MILES
WCI - WIND CHILL INDEX
HX  - HEAT INDEX




USA.gov is the U.S. government's official web portal to all federal, state and local government web resources and services.